Terminal Aerodrome Forecast
Issued by NWS Wilmington, OH

Current Version | Previous Version | Graphics & Text | Print | Product List | Glossary On
Versions: 1 2 3 4 5 6 7 8 9 10 11 12 13 14 15 16
305
FTUS41 KILN 210523
TAFDAY
TAF
KDAY 210523Z 2106/2206 VRB03KT P6SM SKC
      TEMPO 2108/2112 5SM BR
     FM211400 16004KT P6SM FEW250
     FM211500 16005KT P6SM SCT040 BKN250
     FM212300 14004KT P6SM SCT250=

USA.gov is the U.S. government's official web portal to all federal, state and local government web resources and services.